Погода в Модине

Россия / Саратовская область     51°10′24″N   49°23′57″E
темп.,
°C
ветер,
м/с
пор.,
м/с
влажн.,
%
обл.,
%
осадки,
мм/ч
давл.,
гПа
погр.,
м
23 октября, сб
сб2301:00+11юз6147391 0.0 1013338
04:00+9юз51083100 0.0 1014221
07:00+8юз4891100 0.0 1014147
10:00+12юз61072100 0.0 1015297
13:00+16юз7105061 0.0 1016759
16:00+17юз5755100 0.0 1015868
19:00+13ююз4971100 0.0 1015164
22:00+12ююз61173100 0.0 1014287
24 октября, вс
вс2401:00+12ююз61276100 0.0 1013397
04:00+11зюз61192100 1.2 1012622
07:00+11з61184100 0.4 1013615
10:00+10зсз5862100 0.4 1015612
13:00+12зсз6741100 0.0 10161301
16:00+11з5639100 0.0 10161447
19:00+8з3553100 0.0 101791
22:00+7з3460100 0.0 101767
25 октября, пн
пн2501:00+6зсз2264100 0.0 101641
04:00+6з3463100 0.0 101698
07:00+5з3666100 0.0 1016155
10:00+6зсз6766100 0.0 1017574
13:00+5сз677897 0.1 1018863
16:00+5сз7975100 0.2 10201062
19:00+4ссз71073100 0.0 10231003
22:00+3ссз7107265 0.0 1025737
26 октября, вт
вт2601:00+1ссз5107510 0.0 1026474
04:000с5973100 0.0 1028344
07:000ссз3674100 0.0 1029226
10:00+2ссз34583 0.0 1030379
13:00+5зсз34395 0.0 1030854
16:00+6з56335 0.0 1028923
19:00+3зюз49455 0.0 1029196
22:00+2зюз510515 0.0 1029224
27 октября, ср
ср2701:00+1зюз510545 0.0 1029199
04:00+1зюз410605 0.0 1029186
07:000зюз4106442 0.0 1029174
10:00+4зюз6104819 0.0 1029331
13:00+8зюз793470 0.0 1028648
16:00+9зюз693335 0.0 1026787
19:00+5юз5124249 0.0 1026255
22:00+4юз5134326 0.0 1025270